Regional Weather Roundup
Issued by NWS

Home | Current Version | Previous Version | Graphics & Text | Print | Product List | Glossary On
Versions: 1 2 3 4 5 6 7 8 9 10 11 12 13 14 15 16 17 18 19 20 21 22 23 24 25 26 27
000
ASUS45 KBOI 230110
RWRID

IDAHO REGIONAL WEATHER ROUNDUP
NATIONAL WEATHER SERVICE BOISE ID
600 PM MST THU FEB 22 2018

NOTE: "FAIR" INDICATES FEW OR NO CLOUDS BELOW 12000 FEET
WITH NO SIGNIFICANT WEATHER AND/OR OBSTRUCTIONS TO VISIBILITY

IDZ012-014-230200-
SOUTHWEST IDAHO


CITY           SKY/WX    TMP DP  RH WIND       PRES   REMARKS
BOISE          PTCLDY    29  15  56 N3        30.03R
CALDWELL       PTCLDY    32  13  45 CALM      30.05R
MOUNTAIN HOME  PTCLDY    30  17  58 NW9       30.01S WCI  21
$$

IDZ016-017-230200-
SOUTHCENTRAL IDAHO


CITY           SKY/WX    TMP DP  RH WIND       PRES   REMARKS
BURLEY         LGT SNOW  23  20  88 SW8       29.96S FOG     WCI  14
JEROME         CLOUDY    26  16  65 SW12      29.96F WCI  16
TWIN FALLS     CLOUDY    22  18  85 W9        29.96S WCI  12
$$

IDZ019>023-230200-
SOUTHEAST IDAHO


CITY           SKY/WX    TMP DP  RH WIND       PRES   REMARKS
IDAHO FALLS    CLOUDY    29  13  51 S9        29.92R WCI  20
POCATELLO      MOCLDY    28  18  66 S13       29.92R WCI  17
REXBURG        MOCLDY    27  10  49 S7        29.91R WCI  19
$$

IDZ006-010-011-018-031-032-230200-
CENTRAL IDAHO MOUNTAINS


CITY           SKY/WX    TMP DP  RH WIND       PRES   REMARKS
MCCALL         CLOUDY    17  11  77 W5        29.90R WCI  10
HAILEY         LGT SNOW  21  19  93 SE9       29.88R WCI  11
STANLEY          N/A     18   7  62 CALM      29.82R
SALMON         NOT AVBL
CHALLIS        CLOUDY    27  16  63 SW10      29.84R WCI  17
$$

IDZ002-004-006-007-026-230200-
NORTHERN IDAHO


CITY           SKY/WX    TMP DP  RH WIND       PRES   REMARKS
LEWISTON       CLOUDY    29  17  61 NW12      30.23R WCI  19
LOWELL           N/A     28  21  75 E5        30.19R WCI  23
COEUR D`ALENE  CLOUDY    27  13  55 N10       30.14R WCI  17
MULLAN PASS    LGT SNOW   9   5  84 CALM      29.90S FOG
$$




USA.gov is the U.S. government's official web portal to all federal, state and local government web resources and services.